QPF
0.06 0.05 0.05 0.06 0.10 0.18 0.14 0.05 0.07 0.14 0.09 0.05 0.03 0.08 0.07 0.04 0.08 0.09 0.02 0.04 0.05 0.01
0.10 0.12 0.05 0.02 0.11 0.17 0.22 0.14 0.11 0.15 0.16 0.14 0.11 0.15 0.20 0.16 0.09 0.07 0.04 0.02 0.04 0.02
0.05 0.14 0.21 0.19 0.26 0.21 0.11 0.06 0.08 0.13 0.12 0.15 0.14 0.11 0.15 0.20 0.18 0.12 0.07 0.04 0.02 0.01
0.09 0.13 0.22 0.28 0.31 0.29 0.17 0.07 0.03 0.05 0.08 0.08 0.10 0.09 0.07 0.11 0.15 0.15 0.12 0.08 0.04 0.01
0.05 0.08 0.17 0.21 0.18 0.15 0.08 0.04 0.04 0.04 0.08 0.09 0.06 0.04 0.04 0.04 0.07 0.10 0.14 0.12 0.09 0.05
0.01 0.05 0.05 0.06 0.07 0.04 0.02 0.05 0.07 0.10 0.11 0.10 0.06 0.04 0.03 0.02 0.03 0.04 0.08 0.10 0.11 0.11
0.00 0.01 0.02 0.02 0.02 0.02 0.01 0.01 0.02 0.04 0.06 0.06 0.05 0.03 0.03 0.04 0.02 0.01 0.02 0.03 0.03 0.03
0.00 0.00 0.00 0.00 0.00 0.00 0.00 0.00 0.00 0.00 0.00 0.00 0.00 0.00 0.01 0.02 0.03 0.02 0.01 0.00 0.00 0.00
0.00 0.00 0.00 0.00 0.00 0.00 0.00 0.00 0.00 0.00 0.00 0.00 0.00 0.00 0.00 0.00 0.00 0.01 0.02 0.01 0.00 0.00
0.00 0.00 0.00 0.00 0.00 0.00 0.00 0.00 0.00 0.00 0.00 0.00 0.00 0.00 0.00 0.00 0.00 0.00 0.00 0.00 0.00 0.00
0.00 0.00 0.00 0.00 0.00 0.00 0.00 0.00 0.00 0.00 0.00 0.00 0.00 0.00 0.00 0.00 0.00 0.00 0.00 0.00 0.00 0.00
0.00 0.00 0.00 0.00 0.00 0.00 0.00 0.00 0.00 0.00 0.00 0.00 0.00 0.00 0.00 0.00 0.00 0.00 0.00 0.00 0.00 0.00
0.00 0.00 0.00 0.00 0.00 0.00 0.00 0.00 0.00 0.00 0.00 0.00 0.00 0.00 0.00 0.00 0.00 0.00 0.00 0.00 0.00 0.00
0.00 0.00 0.00 0.00 0.00 0.00 0.00 0.00 0.00 0.00 0.00 0.00 0.00 0.00 0.00 0.00 0.00 0.00 0.00 0.00 0.00 0.00
MSLP
998.60 999.33 999.98 1000.62 1001.22 1001.88 1002.53 1003.45 1004.38 1005.47 1006.62 1007.63 1008.64 1009.42 1010.53 1011.40 1012.08 1012.89 1013.50 1014.10 1014.68 1015.04
998.48 998.91 999.43 999.88 1000.42 1001.07 1002.01 1002.80 1003.67 1005.13 1006.12 1007.17 1007.94 1008.73 1009.62 1010.29 1011.09 1011.70 1012.26 1012.85 1013.66 1014.05
998.78 999.25 999.70 999.67 1000.08 1000.58 1000.82 1001.53 1002.83 1004.36 1005.55 1006.64 1007.48 1008.11 1008.99 1009.52 1010.01 1010.79 1011.33 1011.82 1012.43 1012.91
999.93 999.97 1000.28 1000.51 1000.84 1000.92 1001.23 1001.73 1002.50 1003.41 1003.87 1005.13 1006.70 1007.42 1007.96 1008.50 1009.04 1009.67 1010.48 1010.99 1011.46 1011.55
1001.00 1001.40 1001.28 1001.71 1001.80 1001.53 1001.87 1002.62 1002.78 1003.50 1004.04 1004.72 1005.33 1005.92 1007.13 1007.85 1008.07 1008.82 1009.72 1010.20 1010.72 1010.67
1003.01 1002.81 1002.89 1002.97 1003.41 1003.31 1002.84 1003.41 1003.94 1004.18 1004.53 1004.99 1005.58 1005.70 1005.97 1006.59 1006.90 1007.94 1008.54 1009.21 1009.71 1010.04
1004.42 1004.24 1004.44 1004.46 1004.67 1004.77 1004.59 1004.44 1004.53 1004.96 1004.98 1005.50 1005.85 1006.13 1006.57 1005.92 1007.08 1007.16 1006.85 1008.24 1009.02 1009.31
1005.31 1005.37 1005.64 1005.81 1006.11 1005.30 1005.74 1005.87 1006.22 1005.78 1005.69 1007.20 1006.84 1006.82 1007.32 1007.01 1006.68 1006.48 1006.75 1007.39 1007.69 1007.22
1006.28 1006.11 1006.60 1006.87 1006.72 1006.07 1006.92 1006.68 1006.06 1007.65 1006.17 1007.11 1006.58 1007.30 1007.30 1007.23 1007.17 1006.67 1006.45 1006.73 1006.50 1006.88
1007.62 1007.62 1007.16 1007.02 1007.07 1007.27 1006.95 1007.12 1007.08 1006.53 1006.95 1006.96 1007.10 1007.50 1007.71 1007.77 1007.63 1007.56 1007.32 1007.12 1006.77 1006.59
1008.68 1008.56 1008.47 1008.21 1008.25 1008.14 1007.88 1007.34 1007.62 1007.42 1007.78 1007.80 1007.50 1007.75 1007.82 1008.01 1007.93 1007.83 1007.65 1007.55 1007.47 1007.20
1009.13 1009.28 1008.93 1009.01 1008.19 1008.37 1008.46 1008.31 1008.68 1008.16 1008.15 1007.87 1008.00 1007.83 1007.73 1007.80 1007.67 1007.63 1007.38 1007.59 1007.68 1007.49
1010.06 1009.82 1009.44 1009.08 1008.69 1008.36 1007.92 1009.09 1009.02 1008.82 1008.43 1007.88 1007.72 1008.26 1007.90 1007.44 1007.51 1007.59 1007.33 1007.22 1007.21 1007.22
1010.23 1009.98 1009.66 1009.62 1009.06 1008.42 1008.50 1008.49 1008.61 1008.27 1008.27 1008.11 1007.75 1007.45 1007.89 1008.17 1007.73 1007.21 1007.35 1006.96 1006.81 1006.62
Thickness
5696 5692 5691 5691 5689 5688 5688 5687 5687 5681 5677 5676 5673 5670 5664 5660 5658 5656 5655 5654 5652 5654
5689 5688 5687 5689 5689 5687 5681 5681 5679 5673 5667 5665 5664 5662 5659 5658 5655 5654 5655 5655 5652 5651
5675 5677 5676 5680 5681 5680 5682 5680 5674 5665 5660 5658 5654 5655 5651 5652 5653 5650 5652 5653 5652 5651
5654 5658 5661 5662 5664 5667 5669 5668 5666 5663 5664 5653 5649 5649 5649 5647 5648 5647 5646 5647 5650 5655
5631 5635 5640 5640 5644 5651 5651 5649 5649 5650 5651 5649 5648 5647 5639 5637 5645 5642 5640 5642 5641 5648
5599 5608 5613 5617 5617 5623 5631 5631 5632 5637 5638 5638 5639 5641 5641 5634 5633 5631 5632 5637 5637 5639
5577 5583 5586 5592 5597 5602 5607 5614 5620 5621 5624 5623 5628 5628 5626 5633 5628 5631 5635 5628 5630 5634
5557 5564 5566 5569 5573 5585 5585 5588 5590 5600 5605 5599 5608 5611 5611 5614 5620 5629 5630 5627 5630 5640
5539 5544 5546 5550 5551 5564 5561 5571 5578 5568 5587 5587 5596 5593 5598 5603 5606 5616 5626 5627 5633 5637
5513 5518 5528 5534 5538 5540 5541 5553 5560 5569 5568 5572 5577 5579 5582 5588 5594 5595 5601 5610 5621 5627
5490 5496 5500 5508 5513 5518 5524 5535 5540 5547 5548 5551 5558 5561 5567 5570 5577 5582 5588 5593 5599 5605
5467 5474 5482 5486 5497 5500 5504 5508 5513 5522 5529 5536 5538 5545 5551 5558 5564 5569 5576 5579 5582 5589
5443 5451 5459 5467 5477 5486 5494 5487 5491 5498 5506 5518 5523 5524 5532 5540 5546 5554 5562 5566 5570 5574
5429 5436 5443 5448 5458 5470 5473 5478 5481 5490 5492 5497 5506 5511 5511 5515 5523 5534 5541 5552 5556 5562